Regional Weather Roundup
Issued by NWS

Home | Current Version | Previous Version | Text Only | Print | Product List | Glossary Off
Versions: 1 2 3 4 5 6 7 8 9 10 11 12 13 14 15 16 17 18 19 20 21 22 23 24 25 26 27 28 29 30 31 32 33 34 35 36 37 38 39 40 41 42 43 44 45 46 47 48 49 50

000
ASUS43 KMPX 051910
RWRMN
WEATHER ROUNDUP FOR MINNESOTA
NATIONAL WEATHER SERVICE TWIN CITIES/CHANHASSEN MN
100 PM CST THU MAR 05 2015


NOTE: "FAIR" INDICATES FEW OR NO CLOUDS BELOW 12,000 FEET WITH NO
SIGNIFICANT WEATHER AND/OR OBSTRUCTIONS TO VISIBILITY. N/A MEANS
CURRENT SKY AND/OR WEATHER CONDITIONS ARE NOT AVAILABLE.

MNZ060>063-068>070-052000-
   Twin Cities Metro

CITY           SKY/WX    TMP DP  RH WIND       PRES   REMARKS
CRYSTAL        SUNNY     10  -4  53 SW9       30.46F WCI  -3
BLAINE         SUNNY     10  -2  56 S9        30.46F WCI  -2
EDEN PRAIRIE   SUNNY     11  -3  53 SW12      30.47F WCI  -3
$$
MNZ001>005-007-008-013>017-022>024-027-028-052000-
   Northwest Minnesota

CITY           SKY/WX    TMP DP  RH WIND       PRES   REMARKS
THIEF RVR FALL SUNNY     10   3  72 S17       30.25F WCI  -7
FOSSTON        SUNNY     10   0  61 S17       30.27F WCI  -7
DETROIT LAKES  SUNNY     12  -2  52 S10       30.31F WCI  -1
MAHNOMEN       FAIR      11  -1  58 S18       30.29F WCI  -7
$$
MNZ006-009>011-018-025>026-052000-
   North Central Minnesota

CITY           SKY/WX    TMP DP  RH WIND       PRES   REMARKS
BAUDETTE       SUNNY     12  -6  44 SW15      30.22F WCI  -4
WASKISH        SUNNY     10  -4  52 SW10      30.28F WCI  -3
BIG FORK       SUNNY     10  -8  44 SW12G17   30.28F WCI  -4
LONGVILLE      SUNNY     10  -8  44 SW8       30.34F WCI  -1
GRAND RAPIDS   SUNNY      9  -6  52 SW7       30.31F WCI  -3
WALKER         FAIR      11  -7  44 S8        30.31F WCI  -1
$$
MNZ012-019>021-037-052000-
   Northeast Minnesota

CITY           SKY/WX    TMP DP  RH WIND       PRES   REMARKS
HIBBING        SUNNY     10 -11  38 SW12G17   30.30F WCI  -5
$$
MNZ029>031-032-039>041-046>048-054>057-064-052000-
   West Central Minnesota

CITY           SKY/WX    TMP DP  RH WIND       PRES   REMARKS
WHEATON        SUNNY     10   0  61 S14       30.39F WCI  -5
ALEXANDRIA     SUNNY      7  -3  64 S12       30.37F WCI  -8
ELBOW LAKE     FAIR       8  -2  63 S14       30.37F WCI  -8
WADENA         SUNNY      9  -6  52 S9        30.34F WCI  -5
WILLMAR        FAIR      14   1  57 S9        30.44F WCI   2
$$
MNZ033>034-036-042>043-049>051-058-059-052000-
   Central Minnesota

CITY           SKY/WX    TMP DP  RH WIND       PRES   REMARKS
BRAINERD       SUNNY      8  -6  52 SW13      30.37F WCI  -8
LONG PRAIRIE   FAIR       9  -4  56 S9        30.39F WCI  -5
MAPLE LAKE     SUNNY     10  -1  60 SW8       30.47F WCI  -2
$$
MNZ037-044-045-052-053-052000-
   East Central Minnesota

CITY           SKY/WX    TMP DP  RH WIND       PRES   REMARKS
MORA           SUNNY     10  -6  48 SW9       30.44F WCI  -2
CAMBRIDGE      SUNNY      9  -4  56 SW8       30.44F WCI  -4
RUSH CITY      SUNNY      8  -7  49 SW8       30.46F WCI  -4
CLOQUET        SUNNY      9 -11  40 SW13      30.34F WCI  -7
$$
MNZ071>073-080-081-089-090-097-098-052000-
   Southwest Minnesota

CITY           SKY/WX    TMP DP  RH WIND       PRES   REMARKS
MARSHALL       SUNNY     16   0  48 SW9       30.43F WCI   4
WORTHINGTON    SUNNY     12   0  57 SW8       30.43F WCI   1
$$
MNZ065>067-074>077-082>085-091>093-052000-
   South Central Minnesota

CITY           SKY/WX    TMP DP  RH WIND       PRES   REMARKS
MANKATO        SUNNY     10  -2  56 SW9       30.48F WCI  -2
FAIRMONT       SUNNY     10  -2  56 SW9       30.46F WCI  -2
OWATONNA       SUNNY      9  -2  61 SW10      30.48F WCI  -6
$$
MNZ078>079-086>088-094>096-052000-
   Southeast Minnesota

CITY           SKY/WX    TMP DP  RH WIND       PRES   REMARKS
WINONA         SUNNY     10  -4  52 SW3       30.53F
AUSTIN         SUNNY      7  -4  61 SW6       30.48F WCI  -3
PRESTON        SUNNY      4  -6  64 W6        30.48F WCI  -7
$$
ABBREVIATIONS USED IN REMARKS
   TC - TEMPERATURES IN CELSIUS
  WCI - WIND CHILL INDEX
   HX - HEAT INDEX
  VSB - VISIBILITY
$$



USA.gov is the U.S. government's official web portal to all federal, state and local government web resources and services.